"Period start","avg(HW err(1)/warn(2) (#))","avg(Visibility (m))","avg(Weather code (#))","avg(Precip intensity (mm/h))","min(HW err(1)/warn(2) (#))","max(HW err(1)/warn(2) (#))","std(HW err(1)/warn(2) (#))","med(HW err(1)/warn(2) (#))","min(Visibility (m))","max(Visibility (m))","std(Visibility (m))","med(Visibility (m))","min(Weather code (#))","max(Weather code (#))","std(Weather code (#))","med(Weather code (#))","min(Precip intensity (mm/h))","max(Precip intensity (mm/h))","std(Precip intensity (mm/h))","med(Precip intensity (mm/h))"
2016-08-07 00:00:00,0,49608,0,0.00,0,0,0,0,46586,50000,1019,50000,0,0,0,0,0.00,0.00,0.00,0.00
2016-08-07 00:10:00,0,50000,0,0.00,0,0,0,0,50000,50000,0,50000,0,0,0,0,0.00,0.00,0.00,0.00
2016-08-07 00:20:00,0,49992,0,0.00,0,0,0,0,49925,50000,22,50000,0,0,0,0,0.00,0.00,0.00,0.00
2016-08-07 00:30:00,0,49334,0,0.00,0,0,0,0,43344,50000,1997,50000,0,0,0,0,0.00,0.00,0.00,0.00
2016-08-07 00:40:00,0,49876,0,0.00,0,0,0,0,48760,50000,372,50000,0,0,0,0,0.00,0.00,0.00,0.00
2016-08-07 00:50:00,0,49991,0,0.00,0,0,0,0,49913,50000,26,50000,0,0,0,0,0.00,0.00,0.00,0.00
2016-08-07 01:00:00,0,49678,0,0.00,0,0,0,0,47312,50000,804,50000,0,0,0,0,0.00,0.00,0.00,0.00
2016-08-07 01:10:00,0,49880,0,0.00,0,0,0,0,49107,50000,274,50000,0,0,0,0,0.00,0.00,0.00,0.00
2016-08-07 01:20:00,0,49586,0,0.00,0,0,0,0,46164,50000,1144,50000,0,0,0,0,0.00,0.00,0.00,0.00
2016-08-07 01:30:00,0,49886,0,0.00,0,0,0,0,48863,50000,341,50000,0,0,0,0,0.00,0.00,0.00,0.00
2016-08-07 01:40:00,0,48868,0,0.00,0,0,0,0,42240,50000,2451,50000,0,0,0,0,0.00,0.00,0.00,0.00
2016-08-07 01:50:00,0,49957,0,0.00,0,0,0,0,49572,50000,128,50000,0,0,0,0,0.00,0.00,0.00,0.00
2016-08-07 02:00:00,0,49602,0,0.00,0,0,0,0,47171,50000,844,50000,0,0,0,0,0.00,0.00,0.00,0.00
2016-08-07 02:10:00,0,48748,0,0.00,0,0,0,0,45857,50000,1624,49878,0,0,0,0,0.00,0.00,0.00,0.00
2016-08-07 02:20:00,0,50000,0,0.00,0,0,0,0,50000,50000,0,50000,0,0,0,0,0.00,0.00,0.00,0.00
2016-08-07 02:30:00,0,49532,0,0.00,0,0,0,0,47553,50000,937,50000,0,0,0,0,0.00,0.00,0.00,0.00
2016-08-07 02:40:00,0,49975,0,0.00,0,0,0,0,49752,50000,74,50000,0,0,0,0,0.00,0.00,0.00,0.00
2016-08-07 02:50:00,0,50000,0,0.00,0,0,0,0,50000,50000,0,50000,0,0,0,0,0.00,0.00,0.00,0.00
2016-08-07 03:00:00,0,50000,0,0.00,0,0,0,0,50000,50000,0,50000,0,0,0,0,0.00,0.00,0.00,0.00
2016-08-07 03:10:00,0,49736,0,0.00,0,0,0,0,47359,50000,792,50000,0,0,0,0,0.00,0.00,0.00,0.00
2016-08-07 03:20:00,0,49823,0,0.00,0,0,0,0,48226,50000,532,50000,0,0,0,0,0.00,0.00,0.00,0.00
2016-08-07 03:30:00,0,49696,0,0.00,0,0,0,0,47354,50000,789,50000,0,0,0,0,0.00,0.00,0.00,0.00
2016-08-07 03:40:00,0,44181,0,0.00,0,0,0,0,29940,50000,7194,47384,0,0,0,0,0.00,0.00,0.00,0.00
2016-08-07 03:50:00,0,49211,0,0.00,0,0,0,0,43749,50000,1885,50000,0,0,0,0,0.00,0.00,0.00,0.00
2016-08-07 04:00:00,0,49636,0,0.00,0,0,0,0,46362,50000,1091,50000,0,0,0,0,0.00,0.00,0.00,0.00
2016-08-07 04:10:00,0,50000,0,0.00,0,0,0,0,50000,50000,0,50000,0,0,0,0,0.00,0.00,0.00,0.00
2016-08-07 04:20:00,0,47167,0,0.00,0,0,0,0,35856,50000,4536,49704,0,0,0,0,0.00,0.00,0.00,0.00
2016-08-07 04:30:00,0,48154,0,0.00,0,0,0,0,41687,50000,2831,49558,0,0,0,0,0.00,0.00,0.00,0.00
2016-08-07 04:40:00,0,49649,0,0.00,0,0,0,0,48297,50000,574,50000,0,0,0,0,0.00,0.00,0.00,0.00
2016-08-07 04:50:00,0,47657,0,0.00,0,0,0,0,38253,50000,4326,50000,0,0,0,0,0.00,0.00,0.00,0.00
2016-08-07 05:00:00,0,48646,0,0.00,0,0,0,0,41181,50000,2722,50000,0,0,0,0,0.00,0.00,0.00,0.00
2016-08-07 05:10:00,0,47619,0,0.00,0,0,0,0,40321,50000,3285,49610,0,0,0,0,0.00,0.00,0.00,0.00
2016-08-07 05:20:00,0,49909,0,0.00,0,0,0,0,49087,50000,274,50000,0,0,0,0,0.00,0.00,0.00,0.00
2016-08-07 05:30:00,0,48642,0,0.00,0,0,0,0,46663,50000,1437,49282,0,0,0,0,0.00,0.00,0.00,0.00
2016-08-07 05:40:00,0,47637,0,0.00,0,0,0,0,42256,50000,2678,48802,0,0,0,0,0.00,0.00,0.00,0.00
2016-08-07 05:50:00,0,49076,0,0.00,0,0,0,0,46267,50000,1344,50000,0,0,0,0,0.00,0.00,0.00,0.00
2016-08-07 06:00:00,0,49281,0,0.00,0,0,0,0,47398,50000,1044,50000,0,0,0,0,0.00,0.00,0.00,0.00
2016-08-07 06:10:00,0,49514,0,0.00,0,0,0,0,46232,50000,1142,50000,0,0,0,0,0.00,0.00,0.00,0.00
2016-08-07 06:20:00,0,49008,0,0.00,0,0,0,0,44984,50000,1675,50000,0,0,0,0,0.00,0.00,0.00,0.00
2016-08-07 06:30:00,0,48862,0,0.00,0,0,0,0,45890,50000,1438,49746,0,0,0,0,0.00,0.00,0.00,0.00
2016-08-07 06:40:00,0,49127,0,0.00,0,0,0,0,43494,50000,1992,50000,0,0,0,0,0.00,0.00,0.00,0.00
2016-08-07 06:50:00,0,48543,0,0.00,0,0,0,0,44512,50000,1976,49699,0,0,0,0,0.00,0.00,0.00,0.00
2016-08-07 07:00:00,0,46134,0,0.00,0,0,0,0,38069,50000,3748,46109,0,0,0,0,0.00,0.00,0.00,0.00
2016-08-07 07:10:00,0,46009,0,0.00,0,0,0,0,30321,50000,6342,49793,0,0,0,0,0.00,0.00,0.00,0.00
2016-08-07 07:20:00,0,45003,0,0.00,0,0,0,0,36016,50000,4572,46924,0,0,0,0,0.00,0.00,0.00,0.00
2016-08-07 07:30:00,0,47112,0,0.00,0,0,0,0,39200,50000,3638,48882,0,0,0,0,0.00,0.00,0.00,0.00
2016-08-07 07:40:00,0,47522,0,0.00,0,0,0,0,42049,50000,2603,48494,0,0,0,0,0.00,0.00,0.00,0.00
2016-08-07 07:50:00,0,46751,0,0.00,0,0,0,0,37262,50000,3837,47777,0,0,0,0,0.00,0.00,0.00,0.00
2016-08-07 08:00:00,0,46867,0,0.00,0,0,0,0,38525,50000,3804,48765,0,0,0,0,0.00,0.00,0.00,0.00
2016-08-07 08:10:00,0,44427,0,0.00,0,0,0,0,32607,50000,6582,47602,0,0,0,0,0.00,0.00,0.00,0.00
2016-08-07 08:20:00,0,49266,0,0.00,0,0,0,0,46043,50000,1366,50000,0,0,0,0,0.00,0.00,0.00,0.00
2016-08-07 08:30:00,0,47397,0,0.00,0,0,0,0,32911,50000,5037,49598,0,0,0,0,0.00,0.00,0.00,0.00
2016-08-07 08:40:00,0,49542,0,0.00,0,0,0,0,46836,50000,969,50000,0,0,0,0,0.00,0.00,0.00,0.00
2016-08-07 08:50:00,0,49911,0,0.00,0,0,0,0,49109,50000,267,50000,0,0,0,0,0.00,0.00,0.00,0.00
2016-08-07 09:00:00,0,49698,0,0.00,0,0,0,0,48128,50000,626,50000,0,0,0,0,0.00,0.00,0.00,0.00
2016-08-07 09:10:00,0,49258,0,0.00,0,0,0,0,45488,50000,1340,50000,0,0,0,0,0.00,0.00,0.00,0.00
2016-08-07 09:20:00,0,48876,0,0.00,0,0,0,0,43842,50000,1914,50000,0,0,0,0,0.00,0.00,0.00,0.00
2016-08-07 09:30:00,0,49856,0,0.00,0,0,0,0,48564,50000,431,50000,0,0,0,0,0.00,0.00,0.00,0.00
2016-08-07 09:40:00,0,46222,0,0.00,0,0,0,0,33862,50000,5587,50000,0,0,0,0,0.00,0.00,0.00,0.00
2016-08-07 09:50:00,0,50000,0,0.00,0,0,0,0,50000,50000,0,50000,0,0,0,0,0.00,0.00,0.00,0.00
2016-08-07 10:00:00,0,49820,0,0.00,0,0,0,0,48202,50000,539,50000,0,0,0,0,0.00,0.00,0.00,0.00
2016-08-07 10:10:00,0,49349,0,0.00,0,0,0,0,45551,50000,1367,50000,0,0,0,0,0.00,0.00,0.00,0.00
2016-08-07 10:20:00,0,49642,0,0.00,0,0,0,0,46423,50000,1073,50000,0,0,0,0,0.00,0.00,0.00,0.00
2016-08-07 10:30:00,0,50000,0,0.00,0,0,0,0,50000,50000,0,50000,0,0,0,0,0.00,0.00,0.00,0.00
2016-08-07 10:40:00,0,49692,0,0.00,0,0,0,0,48399,50000,617,50000,0,0,0,0,0.00,0.00,0.00,0.00
2016-08-07 10:50:00,0,50000,0,0.00,0,0,0,0,50000,50000,0,50000,0,0,0,0,0.00,0.00,0.00,0.00
2016-08-07 11:00:00,0,49180,0,0.00,0,0,0,0,45850,50000,1488,50000,0,0,0,0,0.00,0.00,0.00,0.00
2016-08-07 11:10:00,0,49920,0,0.00,0,0,0,0,49196,50000,241,50000,0,0,0,0,0.00,0.00,0.00,0.00
2016-08-07 11:20:00,0,50000,0,0.00,0,0,0,0,50000,50000,0,50000,0,0,0,0,0.00,0.00,0.00,0.00
2016-08-07 11:30:00,0,49851,0,0.00,0,0,0,0,48892,50000,339,50000,0,0,0,0,0.00,0.00,0.00,0.00
2016-08-07 11:40:00,0,38919,43,0.52,0,0,0,0,29225,49827,6819,39544,0,61,22,51,0.00,1.20,0.36,0.57
2016-08-07 11:50:00,0,47719,26,0.12,0,0,0,0,44058,50000,2242,48261,0,52,26,26,0.00,0.85,0.26,0.00
2016-08-07 12:00:00,0,49664,0,0.00,0,0,0,0,48650,50000,532,50000,0,0,0,0,0.00,0.00,0.00,0.00
2016-08-07 12:10:00,0,50000,0,0.00,0,0,0,0,50000,50000,0,50000,0,0,0,0,0.00,0.00,0.00,0.00
2016-08-07 12:20:00,0,49798,0,0.00,0,0,0,0,48978,50000,403,50000,0,0,0,0,0.00,0.00,0.00,0.00
2016-08-07 12:30:00,0,50000,0,0.00,0,0,0,0,50000,50000,0,50000,0,0,0,0,0.00,0.00,0.00,0.00
2016-08-07 12:40:00,0,50000,0,0.00,0,0,0,0,50000,50000,0,50000,0,0,0,0,0.00,0.00,0.00,0.00
2016-08-07 12:50:00,0,50000,0,0.00,0,0,0,0,50000,50000,0,50000,0,0,0,0,0.00,0.00,0.00,0.00
2016-08-07 13:00:00,0,49744,0,0.00,0,0,0,0,48840,50000,410,50000,0,0,0,0,0.00,0.00,0.00,0.00
2016-08-07 13:10:00,0,50000,0,0.00,0,0,0,0,50000,50000,0,50000,0,0,0,0,0.00,0.00,0.00,0.00
2016-08-07 13:20:00,0,49989,0,0.00,0,0,0,0,49888,50000,34,50000,0,0,0,0,0.00,0.00,0.00,0.00
2016-08-07 13:30:00,0,49995,0,0.00,0,0,0,0,49950,50000,15,50000,0,0,0,0,0.00,0.00,0.00,0.00
2016-08-07 13:40:00,0,50000,0,0.00,0,0,0,0,50000,50000,0,50000,0,0,0,0,0.00,0.00,0.00,0.00
2016-08-07 13:50:00,0,50000,0,0.00,0,0,0,0,50000,50000,0,50000,0,0,0,0,0.00,0.00,0.00,0.00
2016-08-07 14:00:00,0,50000,0,0.00,0,0,0,0,50000,50000,0,50000,0,0,0,0,0.00,0.00,0.00,0.00
2016-08-07 14:10:00,0,49107,0,0.00,0,0,0,0,43896,50000,1828,50000,0,0,0,0,0.00,0.00,0.00,0.00
2016-08-07 14:20:00,0,49980,0,0.00,0,0,0,0,49797,50000,61,50000,0,0,0,0,0.00,0.00,0.00,0.00
2016-08-07 14:30:00,0,38437,53,0.45,0,0,0,0,22370,47965,8094,39408,51,61,4,52,0.10,1.25,0.31,0.42
2016-08-07 14:40:00,0,23734,56,5.56,0,0,0,0,10782,45296,13375,13767,51,62,5,56,0.05,15.05,4.86,5.10
2016-08-07 14:50:00,0,14050,61,3.01,0,0,0,0,11133,19545,2579,13716,61,61,0,61,1.15,5.60,1.24,3.12
2016-08-07 15:00:00,0,21353,52,0.69,0,0,0,0,16259,28546,4431,19562,51,52,0,52,0.10,2.30,0.60,0.55
2016-08-07 15:10:00,0,15352,56,1.99,0,0,0,0,10318,25543,4209,14887,51,61,4,52,0.60,3.50,0.97,1.75
2016-08-07 15:20:00,0,19823,39,0.14,0,0,0,0,14804,30404,4668,18384,0,61,26,51,0.00,0.45,0.15,0.08
2016-08-07 15:30:00,0,47736,0,0.00,0,0,0,0,39486,50000,3578,49978,0,0,0,0,0.00,0.00,0.00,0.00
2016-08-07 15:40:00,0,50000,0,0.00,0,0,0,0,50000,50000,0,50000,0,0,0,0,0.00,0.00,0.00,0.00
2016-08-07 15:50:00,0,48285,6,0.03,0,0,0,0,34095,50000,4745,50000,0,61,18,0,0.00,0.30,0.09,0.00
2016-08-07 16:00:00,0,43270,52,0.22,0,0,0,0,37225,49214,3692,43324,51,61,3,51,0.00,0.80,0.21,0.20
2016-08-07 16:10:00,0,45398,10,0.01,0,0,0,0,38870,50000,4985,48000,0,51,20,0,0.00,0.10,0.03,0.00
2016-08-07 16:20:00,0,50000,0,0.00,0,0,0,0,50000,50000,0,50000,0,0,0,0,0.00,0.00,0.00,0.00
2016-08-07 16:30:00,0,50000,0,0.00,0,0,0,0,50000,50000,0,50000,0,0,0,0,0.00,0.00,0.00,0.00
2016-08-07 16:40:00,0,50000,0,0.00,0,0,0,0,50000,50000,0,50000,0,0,0,0,0.00,0.00,0.00,0.00
2016-08-07 16:50:00,0,50000,0,0.00,0,0,0,0,50000,50000,0,50000,0,0,0,0,0.00,0.00,0.00,0.00
2016-08-07 17:00:00,0,50000,0,0.00,0,0,0,0,50000,50000,0,50000,0,0,0,0,0.00,0.00,0.00,0.00
2016-08-07 17:10:00,0,49930,0,0.00,0,0,0,0,49299,50000,210,50000,0,0,0,0,0.00,0.00,0.00,0.00
2016-08-07 17:20:00,0,50000,0,0.00,0,0,0,0,50000,50000,0,50000,0,0,0,0,0.00,0.00,0.00,0.00
2016-08-07 17:30:00,0,50000,0,0.00,0,0,0,0,50000,50000,0,50000,0,0,0,0,0.00,0.00,0.00,0.00
2016-08-07 17:40:00,0,50000,0,0.00,0,0,0,0,50000,50000,0,50000,0,0,0,0,0.00,0.00,0.00,0.00
2016-08-07 17:50:00,0,50000,0,0.00,0,0,0,0,50000,50000,0,50000,0,0,0,0,0.00,0.00,0.00,0.00
2016-08-07 18:00:00,0,50000,0,0.00,0,0,0,0,50000,50000,0,50000,0,0,0,0,0.00,0.00,0.00,0.00
2016-08-07 18:10:00,0,49990,0,0.00,0,0,0,0,49895,50000,32,50000,0,0,0,0,0.00,0.00,0.00,0.00
2016-08-07 18:20:00,0,50000,0,0.00,0,0,0,0,50000,50000,0,50000,0,0,0,0,0.00,0.00,0.00,0.00
2016-08-07 18:30:00,0,50000,0,0.00,0,0,0,0,50000,50000,0,50000,0,0,0,0,0.00,0.00,0.00,0.00
2016-08-07 18:40:00,0,50000,0,0.00,0,0,0,0,50000,50000,0,50000,0,0,0,0,0.00,0.00,0.00,0.00
2016-08-07 18:50:00,0,49986,0,0.00,0,0,0,0,49860,50000,42,50000,0,0,0,0,0.00,0.00,0.00,0.00
2016-08-07 19:00:00,0,49572,0,0.00,0,0,0,0,46580,50000,1030,50000,0,0,0,0,0.00,0.00,0.00,0.00
2016-08-07 19:10:00,0,49974,0,0.00,0,0,0,0,49740,50000,78,50000,0,0,0,0,0.00,0.00,0.00,0.00
2016-08-07 19:20:00,0,50000,0,0.00,0,0,0,0,50000,50000,0,50000,0,0,0,0,0.00,0.00,0.00,0.00
2016-08-07 19:30:00,0,48448,0,0.00,0,0,0,0,42996,50000,2652,50000,0,0,0,0,0.00,0.00,0.00,0.00
2016-08-07 19:40:00,0,50000,0,0.00,0,0,0,0,50000,50000,0,50000,0,0,0,0,0.00,0.00,0.00,0.00
2016-08-07 19:50:00,0,49785,0,0.00,0,0,0,0,48547,50000,462,50000,0,0,0,0,0.00,0.00,0.00,0.00
2016-08-07 20:00:00,0,50000,0,0.00,0,0,0,0,50000,50000,0,50000,0,0,0,0,0.00,0.00,0.00,0.00
2016-08-07 20:10:00,0,50000,0,0.00,0,0,0,0,50000,50000,0,50000,0,0,0,0,0.00,0.00,0.00,0.00
2016-08-07 20:20:00,0,49856,0,0.00,0,0,0,0,49185,50000,256,50000,0,0,0,0,0.00,0.00,0.00,0.00
2016-08-07 20:30:00,0,50000,0,0.00,0,0,0,0,50000,50000,0,50000,0,0,0,0,0.00,0.00,0.00,0.00
2016-08-07 20:40:00,0,49955,0,0.00,0,0,0,0,49548,50000,136,50000,0,0,0,0,0.00,0.00,0.00,0.00
2016-08-07 20:50:00,0,50000,0,0.00,0,0,0,0,50000,50000,0,50000,0,0,0,0,0.00,0.00,0.00,0.00
2016-08-07 21:00:00,0,49954,0,0.00,0,0,0,0,49537,50000,139,50000,0,0,0,0,0.00,0.00,0.00,0.00
2016-08-07 21:10:00,0,50000,0,0.00,0,0,0,0,50000,50000,0,50000,0,0,0,0,0.00,0.00,0.00,0.00
2016-08-07 21:20:00,0,50000,0,0.00,0,0,0,0,50000,50000,0,50000,0,0,0,0,0.00,0.00,0.00,0.00
2016-08-07 21:30:00,0,41498,0,0.00,0,0,0,0,3217,50000,15320,50000,0,0,0,0,0.00,0.00,0.00,0.00
2016-08-07 21:40:00,0,47722,30,0.25,0,0,0,0,37108,50000,4255,50000,0,61,30,30,0.00,1.00,0.34,0.00
2016-08-07 21:50:00,0,49253,61,0.29,0,0,0,0,47763,50000,899,49722,61,61,0,61,0.00,1.25,0.35,0.15
2016-08-07 22:00:00,0,49643,21,0.02,0,0,0,0,48141,50000,714,50000,0,61,26,0,0.00,0.10,0.03,0.00
2016-08-07 22:10:00,0,50000,0,0.00,0,0,0,0,50000,50000,0,50000,0,0,0,0,0.00,0.00,0.00,0.00
2016-08-07 22:20:00,0,50000,0,0.00,0,0,0,0,50000,50000,0,50000,0,0,0,0,0.00,0.00,0.00,0.00
2016-08-07 22:30:00,0,50000,0,0.00,0,0,0,0,50000,50000,0,50000,0,0,0,0,0.00,0.00,0.00,0.00
2016-08-07 22:40:00,0,49927,0,0.00,0,0,0,0,49269,50000,219,50000,0,0,0,0,0.00,0.00,0.00,0.00
2016-08-07 22:50:00,0,50000,0,0.00,0,0,0,0,50000,50000,0,50000,0,0,0,0,0.00,0.00,0.00,0.00
2016-08-07 23:00:00,0,50000,0,0.00,0,0,0,0,50000,50000,0,50000,0,0,0,0,0.00,0.00,0.00,0.00
2016-08-07 23:10:00,0,50000,0,0.00,0,0,0,0,50000,50000,0,50000,0,0,0,0,0.00,0.00,0.00,0.00
2016-08-07 23:20:00,0,49893,0,0.00,0,0,0,0,48932,50000,320,50000,0,0,0,0,0.00,0.00,0.00,0.00
2016-08-07 23:30:00,0,50000,0,0.00,0,0,0,0,50000,50000,0,50000,0,0,0,0,0.00,0.00,0.00,0.00
2016-08-07 23:40:00,0,49948,0,0.00,0,0,0,0,49481,50000,156,50000,0,0,0,0,0.00,0.00,0.00,0.00
2016-08-07 23:50:00,0,50000,0,0.00,0,0,0,0,50000,50000,0,50000,0,0,0,0,0.00,0.00,0.00,0.00
